Find Local Weather

World > North America > United States > Alabama

Attalla, Alabama Regional Weather

Lat: 34.01N, Lon: 86.1W
Wx Zone: ALZ018
Warning FLW WEATHER ALERT - (More Info. Click Here) Warning
Feedback
Expires:201806250800;;077994
ASUS44 KBMX 250710
RWRAL 
             
ALABAMA REGIONAL WEATHER ROUNDUP
NATIONAL WEATHER SERVICE BIRMINGHAM AL
200 AM CDT MON JUN 25 2018

NOTE: "FAIR" INDICATES FEW OR NO CLOUDS BELOW 12,000 FEET
WITH NO SIGNIFICANT WEATHER AND/OR OBSTRUCTIONS TO VISIBILITY.

THE REMARK "TC" DENOTES TEMPERATURE IN DEGREES CELSIUS.


ALZ001>011-014-016>018-020-250800-
NORTH ALABAMA
  
CITY           SKY/WX    TMP DP  RH WIND       PRES   REMARKS
MUSCLE SHOALS  FAIR      76  72  87 CALM      30.00S                  
HUNTSVILLE     FAIR      76  73  91 SE7       30.01S                  
DECATUR        FAIR      74  72  93 S6        30.01S                  
HALEYVILLE     FAIR      75  75 100 CALM      30.04F                  
GADSDEN        FAIR      72  72 100 MISG      30.05S                  
$$
 

SKY/WX - Weather  TMP - Temperature  DP - Dewpoint  RH - Relative Humidity
WIND - Wind Direction/Speed PRES - Barometric Pressure